{"data":{"norad_id":57155,"intl_designator":"2023-090BG","name":"STARLINK-6108","alt_names":[],"object_type":"PAYLOAD","status":"ACTIVE","operator":null,"country":"US","launch_date":"2023-06-23","launch_site_code":"AFETR","launch_vehicle":null,"mission":null,"orbit_class":"UNKNOWN","rcs_meters":null,"size_class":null,"mass_kg":null,"dimensions":null,"purposes":["comms"],"wikipedia_slug":null,"has_3d_model":false,"image_url":null,"decayed_at":null,"tle_current":{"epoch":"2026-09-20T15:23:21.973920Z","epoch_age_seconds":108722,"freshness":"FRESH","line1":"1 57155U 23090BG  26263.64122655  .00000231  00000+0  17916-4 0  9990","line2":"2 57155  43.0010 242.7812 0000889 266.3611  93.7139 15.27579552180356","mean_motion":15.27579552,"eccentricity":8.89e-5,"inclination_deg":43.001,"raan_deg":242.7812,"arg_perigee_deg":266.3611,"mean_anomaly_deg":93.7139,"bstar":1.7916e-5,"rev_number":18035,"period_min":94.266776359677,"perigee_km":482.44047794995,"apogee_km":483.66039707634,"semimajor_km":6861.1874375131,"source":"CELESTRAK","updated_at":"2026-09-21T09:00:33.583598Z"}}}